QPF
0.00 0.00 0.00 0.01 0.02 0.04 0.05 0.07 0.07 0.06 0.06 0.06 0.06 0.11 0.15 0.09 0.09 0.11 0.10 0.07 0.04 0.03 0.03 0.03 0.04 0.05 0.07 0.08 0.09 0.10 0.10 0.10 0.09 0.10 0.10 0.09 0.07 0.06 0.05 0.05 0.04 0.03 0.02
0.00 0.01 0.01 0.01 0.02 0.04 0.05 0.07 0.07 0.06 0.05 0.04 0.06 0.09 0.12 0.10 0.08 0.09 0.10 0.08 0.06 0.05 0.04 0.05 0.04 0.05 0.06 0.07 0.08 0.10 0.11 0.11 0.11 0.10 0.09 0.09 0.08 0.07 0.06 0.05 0.04 0.04 0.03
0.00 0.01 0.02 0.02 0.02 0.02 0.03 0.05 0.05 0.06 0.07 0.07 0.08 0.08 0.08 0.10 0.10 0.09 0.11 0.12 0.08 0.07 0.06 0.06 0.06 0.06 0.06 0.08 0.08 0.08 0.09 0.09 0.10 0.10 0.09 0.08 0.07 0.07 0.06 0.05 0.04 0.03 0.04
0.01 0.01 0.01 0.02 0.02 0.02 0.02 0.05 0.05 0.04 0.05 0.05 0.06 0.08 0.08 0.09 0.09 0.09 0.09 0.12 0.10 0.07 0.06 0.05 0.06 0.09 0.10 0.10 0.10 0.07 0.07 0.08 0.08 0.07 0.06 0.06 0.06 0.06 0.06 0.04 0.04 0.03 0.02
0.01 0.02 0.02 0.02 0.02 0.02 0.02 0.04 0.04 0.02 0.03 0.04 0.04 0.06 0.05 0.05 0.06 0.06 0.07 0.08 0.08 0.08 0.07 0.06 0.07 0.10 0.11 0.11 0.11 0.09 0.06 0.07 0.08 0.06 0.05 0.05 0.06 0.05 0.04 0.05 0.05 0.04 0.02
0.01 0.02 0.03 0.03 0.03 0.03 0.03 0.03 0.03 0.03 0.02 0.03 0.04 0.04 0.03 0.03 0.04 0.07 0.06 0.05 0.06 0.09 0.08 0.07 0.08 0.11 0.12 0.10 0.09 0.08 0.06 0.06 0.07 0.07 0.06 0.04 0.05 0.04 0.04 0.04 0.04 0.04 0.03
0.01 0.02 0.03 0.03 0.03 0.06 0.07 0.09 0.10 0.07 0.04 0.04 0.03 0.02 0.02 0.03 0.04 0.05 0.04 0.04 0.04 0.06 0.10 0.08 0.08 0.10 0.12 0.10 0.08 0.08 0.08 0.08 0.09 0.09 0.06 0.05 0.05 0.04 0.04 0.04 0.04 0.03 0.02
0.01 0.02 0.03 0.05 0.06 0.08 0.08 0.12 0.12 0.06 0.04 0.03 0.02 0.02 0.02 0.02 0.02 0.03 0.03 0.03 0.03 0.04 0.06 0.06 0.06 0.08 0.11 0.12 0.10 0.09 0.08 0.10 0.10 0.08 0.07 0.05 0.05 0.04 0.04 0.04 0.05 0.04 0.03
0.00 0.01 0.01 0.02 0.03 0.05 0.03 0.04 0.04 0.03 0.03 0.03 0.02 0.02 0.02 0.02 0.02 0.02 0.02 0.02 0.02 0.02 0.03 0.05 0.05 0.06 0.08 0.11 0.11 0.09 0.08 0.09 0.10 0.08 0.07 0.05 0.04 0.05 0.03 0.03 0.04 0.06 0.05
0.00 0.01 0.01 0.01 0.01 0.01 0.01 0.02 0.03 0.04 0.04 0.03 0.02 0.02 0.01 0.02 0.02 0.02 0.02 0.02 0.02 0.01 0.03 0.05 0.06 0.05 0.05 0.07 0.09 0.08 0.07 0.08 0.08 0.07 0.07 0.05 0.03 0.03 0.02 0.02 0.03 0.04 0.04
0.00 0.00 0.01 0.01 0.01 0.01 0.01 0.02 0.02 0.02 0.03 0.03 0.02 0.02 0.01 0.01 0.01 0.01 0.01 0.01 0.02 0.02 0.02 0.03 0.03 0.03 0.04 0.05 0.08 0.09 0.07 0.06 0.06 0.05 0.05 0.04 0.03 0.03 0.02 0.01 0.02 0.02 0.03
0.00 0.00 0.00 0.00 0.01 0.01 0.01 0.01 0.01 0.01 0.01 0.02 0.02 0.02 0.01 0.01 0.01 0.01 0.01 0.01 0.02 0.02 0.02 0.02 0.02 0.02 0.02 0.04 0.05 0.07 0.07 0.06 0.06 0.05 0.04 0.03 0.02 0.03 0.02 0.02 0.02 0.02 0.02
0.00 0.00 0.00 0.00 0.00 0.01 0.01 0.01 0.01 0.01 0.01 0.02 0.02 0.02 0.01 0.01 0.01 0.01 0.01 0.01 0.02 0.02 0.01 0.01 0.02 0.02 0.02 0.04 0.04 0.05 0.05 0.05 0.04 0.04 0.03 0.02 0.02 0.02 0.02 0.02 0.02 0.01 0.01
0.01 0.00 0.00 0.00 0.00 0.00 0.01 0.00 0.01 0.01 0.02 0.03 0.03 0.03 0.02 0.02 0.01 0.01 0.01 0.01 0.02 0.02 0.02 0.02 0.02 0.02 0.02 0.03 0.03 0.04 0.04 0.04 0.03 0.03 0.02 0.01 0.01 0.02 0.03 0.02 0.03 0.03 0.02
0.01 0.00 0.00 0.00 0.00 0.00 0.00 0.01 0.01 0.01 0.02 0.03 0.04 0.03 0.02 0.02 0.01 0.01 0.01 0.01 0.01 0.01 0.01 0.02 0.02 0.02 0.02 0.02 0.02 0.02 0.03 0.04 0.04 0.03 0.02 0.02 0.01 0.02 0.03 0.02 0.03 0.04 0.04
0.00 0.00 0.00 0.00 0.00 0.00 0.00 0.00 0.01 0.01 0.02 0.03 0.02 0.02 0.02 0.02 0.01 0.01 0.00 0.01 0.01 0.01 0.01 0.02 0.02 0.02 0.01 0.02 0.03 0.02 0.02 0.02 0.02 0.02 0.03 0.04 0.03 0.02 0.02 0.02 0.02 0.03 0.03
0.00 0.00 0.00 0.00 0.00 0.00 0.00 0.01 0.01 0.01 0.02 0.02 0.01 0.01 0.01 0.02 0.02 0.01 0.01 0.01 0.01 0.01 0.01 0.01 0.02 0.02 0.02 0.03 0.04 0.03 0.02 0.03 0.02 0.03 0.04 0.03 0.02 0.02 0.01 0.02 0.02 0.02 0.02
0.00 0.00 0.00 0.00 0.01 0.01 0.01 0.02 0.02 0.02 0.02 0.02 0.02 0.01 0.01 0.01 0.01 0.01 0.01 0.01 0.01 0.01 0.01 0.01 0.02 0.02 0.03 0.04 0.03 0.04 0.03 0.04 0.04 0.03 0.04 0.04 0.02 0.01 0.01 0.02 0.02 0.01 0.01
0.01 0.01 0.01 0.01 0.01 0.01 0.01 0.02 0.03 0.03 0.03 0.03 0.03 0.02 0.01 0.01 0.01 0.01 0.01 0.01 0.01 0.01 0.01 0.01 0.01 0.02 0.03 0.06 0.07 0.06 0.05 0.04 0.04 0.04 0.04 0.04 0.03 0.02 0.02 0.03 0.03 0.03 0.02
0.02 0.01 0.01 0.01 0.01 0.01 0.01 0.03 0.04 0.04 0.05 0.04 0.04 0.04 0.03 0.03 0.02 0.02 0.01 0.01 0.01 0.01 0.01 0.02 0.02 0.02 0.03 0.05 0.07 0.08 0.06 0.05 0.05 0.06 0.05 0.03 0.02 0.03 0.03 0.03 0.03 0.03 0.03
0.01 0.01 0.01 0.01 0.02 0.02 0.02 0.03 0.05 0.06 0.06 0.06 0.05 0.06 0.06 0.05 0.04 0.03 0.03 0.04 0.03 0.02 0.02 0.03 0.03 0.02 0.02 0.03 0.03 0.05 0.04 0.04 0.04 0.05 0.05 0.04 0.03 0.02 0.03 0.02 0.02 0.03 0.03
0.01 0.01 0.01 0.01 0.02 0.02 0.02 0.03 0.04 0.06 0.05 0.05 0.04 0.04 0.05 0.05 0.05 0.05 0.05 0.05 0.05 0.04 0.05 0.06 0.04 0.02 0.02 0.02 0.02 0.03 0.03 0.04 0.03 0.04 0.05 0.05 0.04 0.03 0.03 0.01 0.01 0.02 0.03
0.02 0.01 0.01 0.01 0.01 0.01 0.01 0.02 0.02 0.03 0.03 0.03 0.03 0.03 0.03 0.03 0.03 0.03 0.03 0.03 0.04 0.04 0.04 0.04 0.02 0.02 0.03 0.03 0.03 0.02 0.02 0.02 0.03 0.03 0.04 0.06 0.05 0.04 0.02 0.01 0.02 0.02 0.02
0.02 0.01 0.01 0.01 0.01 0.01 0.01 0.01 0.02 0.02 0.01 0.01 0.01 0.01 0.01 0.02 0.02 0.01 0.02 0.02 0.03 0.03 0.03 0.03 0.02 0.03 0.02 0.02 0.02 0.02 0.02 0.02 0.02 0.02 0.03 0.04 0.04 0.04 0.03 0.02 0.02 0.02 0.02
0.01 0.01 0.01 0.01 0.01 0.01 0.01 0.01 0.02 0.03 0.02 0.01 0.01 0.01 0.01 0.01 0.01 0.01 0.02 0.02 0.02 0.03 0.03 0.03 0.03 0.03 0.03 0.03 0.03 0.03 0.02 0.02 0.02 0.03 0.02 0.02 0.02 0.02 0.02 0.02 0.02 0.02 0.02
0.02 0.02 0.02 0.01 0.01 0.01 0.01 0.01 0.02 0.02 0.02 0.02 0.01 0.01 0.01 0.01 0.01 0.02 0.02 0.03 0.03 0.03 0.04 0.05 0.06 0.06 0.04 0.04 0.04 0.04 0.04 0.03 0.03 0.02 0.02 0.02 0.02 0.02 0.02 0.01 0.02 0.02 0.01
MSLP
1006.25 1006.58 1007.00 1007.43 1007.82 1008.13 1008.32 1008.39 1008.36 1008.25 1008.09 1007.92 1007.75 1007.59 1007.45 1007.33 1007.23 1007.15 1007.08 1007.04 1007.03 1007.08 1007.19 1007.40 1007.72 1008.17 1008.74 1009.45 1010.28 1011.19 1012.17 1013.17 1014.13 1015.02 1015.80 1016.44 1016.96 1017.35 1017.64 1017.87 1018.09 1018.32 1018.60
1006.95 1007.20 1007.52 1007.86 1008.16 1008.40 1008.53 1008.57 1008.51 1008.38 1008.21 1008.01 1007.82 1007.63 1007.47 1007.34 1007.23 1007.16 1007.12 1007.12 1007.15 1007.23 1007.36 1007.57 1007.87 1008.27 1008.79 1009.42 1010.18 1011.05 1012.00 1013.00 1013.99 1014.93 1015.79 1016.52 1017.12 1017.58 1017.94 1018.20 1018.44 1018.66 1018.92
1007.53 1007.68 1007.89 1008.14 1008.36 1008.54 1008.65 1008.67 1008.62 1008.51 1008.35 1008.17 1007.97 1007.78 1007.61 1007.47 1007.36 1007.28 1007.24 1007.25 1007.29 1007.37 1007.50 1007.68 1007.94 1008.28 1008.73 1009.29 1009.98 1010.79 1011.71 1012.70 1013.72 1014.72 1015.65 1016.47 1017.16 1017.71 1018.14 1018.46 1018.72 1018.96 1019.21
1008.05 1008.09 1008.20 1008.34 1008.48 1008.61 1008.70 1008.73 1008.71 1008.64 1008.52 1008.37 1008.20 1008.03 1007.86 1007.70 1007.58 1007.49 1007.44 1007.43 1007.45 1007.52 1007.62 1007.76 1007.97 1008.25 1008.62 1009.12 1009.74 1010.50 1011.39 1012.37 1013.40 1014.43 1015.42 1016.31 1017.08 1017.71 1018.20 1018.59 1018.90 1019.17 1019.43
1008.59 1008.52 1008.51 1008.54 1008.60 1008.68 1008.74 1008.78 1008.79 1008.77 1008.70 1008.61 1008.48 1008.33 1008.17 1008.01 1007.88 1007.77 1007.70 1007.66 1007.66 1007.69 1007.76 1007.86 1008.01 1008.24 1008.56 1008.99 1009.56 1010.27 1011.12 1012.07 1013.09 1014.13 1015.14 1016.07 1016.88 1017.56 1018.11 1018.55 1018.91 1019.22 1019.52
1009.23 1009.04 1008.90 1008.82 1008.79 1008.79 1008.82 1008.86 1008.88 1008.90 1008.88 1008.83 1008.74 1008.63 1008.49 1008.35 1008.21 1008.09 1008.00 1007.94 1007.91 1007.92 1007.95 1008.02 1008.14 1008.33 1008.61 1009.00 1009.52 1010.19 1010.99 1011.90 1012.88 1013.89 1014.87 1015.79 1016.60 1017.29 1017.87 1018.34 1018.74 1019.09 1019.43
1010.01 1009.70 1009.44 1009.23 1009.08 1009.00 1008.96 1008.97 1009.00 1009.02 1009.04 1009.02 1008.97 1008.89 1008.79 1008.66 1008.54 1008.43 1008.33 1008.27 1008.23 1008.22 1008.24 1008.30 1008.40 1008.58 1008.84 1009.20 1009.70 1010.32 1011.07 1011.92 1012.83 1013.77 1014.68 1015.53 1016.29 1016.96 1017.52 1017.99 1018.41 1018.80 1019.19
1010.90 1010.48 1010.09 1009.75 1009.49 1009.30 1009.19 1009.13 1009.12 1009.14 1009.16 1009.16 1009.14 1009.10 1009.03 1008.95 1008.86 1008.77 1008.70 1008.66 1008.63 1008.63 1008.66 1008.73 1008.84 1009.02 1009.28 1009.64 1010.11 1010.70 1011.39 1012.16 1012.98 1013.81 1014.62 1015.36 1016.03 1016.61 1017.12 1017.57 1017.99 1018.40 1018.83
1011.82 1011.30 1010.80 1010.35 1009.98 1009.68 1009.47 1009.34 1009.28 1009.25 1009.25 1009.26 1009.26 1009.25 1009.23 1009.19 1009.16 1009.12 1009.11 1009.10 1009.12 1009.15 1009.21 1009.31 1009.45 1009.65 1009.92 1010.29 1010.75 1011.30 1011.93 1012.62 1013.34 1014.04 1014.71 1015.32 1015.87 1016.34 1016.77 1017.16 1017.56 1017.97 1018.42
1012.65 1012.07 1011.50 1010.96 1010.49 1010.11 1009.81 1009.59 1009.46 1009.38 1009.35 1009.35 1009.36 1009.38 1009.40 1009.42 1009.45 1009.49 1009.54 1009.60 1009.67 1009.76 1009.87 1010.00 1010.18 1010.41 1010.71 1011.09 1011.54 1012.06 1012.64 1013.25 1013.85 1014.44 1014.96 1015.44 1015.84 1016.20 1016.52 1016.84 1017.19 1017.58 1018.03
1013.30 1012.69 1012.09 1011.51 1010.99 1010.54 1010.17 1009.89 1009.69 1009.56 1009.49 1009.46 1009.47 1009.51 1009.58 1009.66 1009.76 1009.87 1010.00 1010.13 1010.26 1010.41 1010.57 1010.75 1010.97 1011.24 1011.56 1011.94 1012.39 1012.88 1013.41 1013.95 1014.46 1014.93 1015.33 1015.67 1015.95 1016.19 1016.42 1016.66 1016.95 1017.30 1017.73
1013.69 1013.12 1012.53 1011.96 1011.43 1010.96 1010.56 1010.23 1009.98 1009.80 1009.69 1009.64 1009.64 1009.69 1009.79 1009.92 1010.08 1010.26 1010.46 1010.65 1010.86 1011.06 1011.26 1011.48 1011.73 1012.02 1012.35 1012.74 1013.18 1013.65 1014.14 1014.61 1015.05 1015.43 1015.74 1015.97 1016.15 1016.30 1016.43 1016.60 1016.83 1017.13 1017.52
1013.85 1013.34 1012.82 1012.31 1011.81 1011.36 1010.96 1010.62 1010.34 1010.12 1009.97 1009.89 1009.87 1009.92 1010.04 1010.20 1010.40 1010.64 1010.89 1011.14 1011.39 1011.63 1011.87 1012.11 1012.38 1012.67 1013.01 1013.39 1013.81 1014.25 1014.71 1015.14 1015.52 1015.84 1016.08 1016.26 1016.37 1016.44 1016.52 1016.63 1016.80 1017.06 1017.41
1013.81 1013.41 1012.98 1012.55 1012.13 1011.73 1011.36 1011.03 1010.73 1010.49 1010.31 1010.20 1010.16 1010.20 1010.31 1010.48 1010.71 1010.97 1011.26 1011.54 1011.82 1012.09 1012.34 1012.60 1012.86 1013.15 1013.47 1013.83 1014.23 1014.65 1015.07 1015.46 1015.81 1016.10 1016.31 1016.44 1016.52 1016.56 1016.60 1016.68 1016.81 1017.03 1017.33
1013.67 1013.37 1013.05 1012.72 1012.40 1012.07 1011.74 1011.43 1011.14 1010.89 1010.68 1010.54 1010.47 1010.48 1010.57 1010.73 1010.96 1011.23 1011.53 1011.83 1012.12 1012.40 1012.66 1012.91 1013.16 1013.44 1013.74 1014.07 1014.44 1014.82 1015.21 1015.58 1015.90 1016.17 1016.36 1016.49 1016.56 1016.59 1016.63 1016.68 1016.80 1016.99 1017.25
1013.49 1013.29 1013.07 1012.84 1012.60 1012.34 1012.06 1011.78 1011.50 1011.24 1011.01 1010.84 1010.74 1010.71 1010.77 1010.92 1011.13 1011.39 1011.68 1011.98 1012.28 1012.55 1012.81 1013.06 1013.31 1013.57 1013.84 1014.15 1014.48 1014.83 1015.19 1015.52 1015.82 1016.07 1016.26 1016.39 1016.47 1016.52 1016.56 1016.62 1016.73 1016.90 1017.14
1013.33 1013.20 1013.06 1012.90 1012.72 1012.51 1012.28 1012.02 1011.76 1011.49 1011.25 1011.05 1010.92 1010.86 1010.89 1011.00 1011.18 1011.42 1011.70 1011.99 1012.28 1012.57 1012.84 1013.09 1013.33 1013.59 1013.85 1014.13 1014.43 1014.75 1015.07 1015.37 1015.64 1015.88 1016.06 1016.19 1016.28 1016.35 1016.40 1016.48 1016.59 1016.76 1016.98
1013.20 1013.11 1013.00 1012.88 1012.73 1012.55 1012.34 1012.10 1011.85 1011.58 1011.33 1011.12 1010.96 1010.88 1010.87 1010.95 1011.10 1011.32 1011.58 1011.86 1012.16 1012.45 1012.74 1013.01 1013.27 1013.53 1013.80 1014.07 1014.36 1014.64 1014.93 1015.20 1015.44 1015.64 1015.81 1015.94 1016.04 1016.12 1016.20 1016.29 1016.41 1016.58 1016.79
1013.09 1012.99 1012.88 1012.76 1012.61 1012.43 1012.23 1012.00 1011.75 1011.49 1011.24 1011.03 1010.86 1010.75 1010.72 1010.77 1010.89 1011.08 1011.33 1011.61 1011.91 1012.22 1012.53 1012.84 1013.14 1013.43 1013.72 1014.00 1014.28 1014.56 1014.81 1015.05 1015.26 1015.44 1015.59 1015.71 1015.80 1015.89 1015.98 1016.08 1016.21 1016.38 1016.59
1012.97 1012.83 1012.68 1012.52 1012.34 1012.15 1011.94 1011.71 1011.47 1011.23 1011.00 1010.79 1010.62 1010.51 1010.46 1010.48 1010.57 1010.73 1010.95 1011.22 1011.53 1011.86 1012.20 1012.56 1012.91 1013.25 1013.58 1013.90 1014.20 1014.47 1014.72 1014.93 1015.12 1015.27 1015.39 1015.49 1015.58 1015.67 1015.76 1015.88 1016.02 1016.19 1016.39
1012.82 1012.62 1012.41 1012.20 1011.98 1011.76 1011.53 1011.30 1011.07 1010.85 1010.64 1010.45 1010.29 1010.17 1010.10 1010.09 1010.15 1010.27 1010.46 1010.71 1011.01 1011.35 1011.72 1012.12 1012.53 1012.93 1013.32 1013.69 1014.03 1014.32 1014.58 1014.79 1014.95 1015.08 1015.19 1015.27 1015.35 1015.44 1015.54 1015.66 1015.81 1015.99 1016.19
1012.65 1012.39 1012.12 1011.84 1011.57 1011.32 1011.07 1010.84 1010.63 1010.42 1010.23 1010.06 1009.90 1009.78 1009.69 1009.64 1009.65 1009.72 1009.86 1010.07 1010.34 1010.68 1011.07 1011.50 1011.96 1012.42 1012.88 1013.30 1013.69 1014.02 1014.30 1014.52 1014.69 1014.82 1014.91 1014.99 1015.07 1015.16 1015.27 1015.40 1015.56 1015.75 1015.95
1012.51 1012.19 1011.86 1011.53 1011.22 1010.93 1010.67 1010.43 1010.22 1010.03 1009.85 1009.68 1009.52 1009.38 1009.25 1009.16 1009.11 1009.11 1009.18 1009.32 1009.55 1009.86 1010.24 1010.69 1011.17 1011.68 1012.19 1012.68 1013.12 1013.50 1013.82 1014.07 1014.26 1014.39 1014.49 1014.58 1014.66 1014.76 1014.88 1015.03 1015.21 1015.41 1015.62
1012.45 1012.09 1011.71 1011.34 1010.99 1010.68 1010.40 1010.15 1009.93 1009.74 1009.55 1009.37 1009.19 1009.01 1008.84 1008.68 1008.55 1008.47 1008.45 1008.52 1008.68 1008.93 1009.28 1009.71 1010.21 1010.74 1011.29 1011.82 1012.31 1012.74 1013.10 1013.38 1013.60 1013.76 1013.88 1013.98 1014.09 1014.20 1014.34 1014.51 1014.71 1014.92 1015.15
1012.53 1012.14 1011.75 1011.35 1010.97 1010.63 1010.32 1010.05 1009.80 1009.58 1009.36 1009.15 1008.93 1008.69 1008.46 1008.23 1008.02 1007.85 1007.75 1007.72 1007.80 1007.99 1008.29 1008.68 1009.16 1009.69 1010.24 1010.80 1011.31 1011.78 1012.17 1012.49 1012.74 1012.93 1013.08 1013.21 1013.33 1013.47 1013.63 1013.82 1014.03 1014.27 1014.52
1012.77 1012.39 1011.99 1011.58 1011.18 1010.81 1010.46 1010.14 1009.84 1009.57 1009.30 1009.02 1008.74 1008.45 1008.15 1007.85 1007.56 1007.32 1007.14 1007.04 1007.05 1007.16 1007.40 1007.74 1008.17 1008.67 1009.21 1009.75 1010.28 1010.75 1011.16 1011.51 1011.78 1011.99 1012.16 1012.31 1012.45 1012.60 1012.78 1012.98 1013.20 1013.45 1013.71
Thickness
5778 5777 5774 5771 5766 5761 5756 5752 5748 5746 5745 5743 5742 5741 5739 5739 5738 5737 5733 5732 5731 5731 5730 5731 5728 5729 5728 5727 5728 5727 5726 5725 5725 5724 5722 5723 5725 5724 5724 5725 5724 5724 5723
5772 5770 5769 5766 5761 5756 5753 5749 5745 5743 5742 5740 5738 5737 5736 5736 5736 5735 5731 5730 5729 5728 5729 5727 5727 5726 5725 5724 5723 5723 5724 5723 5723 5721 5719 5716 5717 5719 5722 5721 5721 5721 5721
5768 5765 5762 5760 5757 5753 5749 5747 5743 5741 5739 5737 5736 5734 5732 5732 5731 5730 5728 5727 5726 5725 5725 5724 5724 5723 5724 5722 5721 5720 5719 5719 5720 5720 5718 5714 5712 5715 5717 5717 5718 5717 5717
5766 5762 5759 5755 5753 5750 5747 5743 5740 5738 5736 5734 5732 5729 5727 5725 5725 5725 5724 5723 5723 5723 5722 5722 5721 5721 5721 5719 5719 5718 5718 5716 5716 5717 5716 5717 5717 5712 5710 5713 5715 5715 5713
5763 5758 5755 5752 5750 5747 5743 5739 5735 5733 5731 5729 5728 5725 5724 5723 5723 5722 5720 5720 5720 5719 5719 5718 5717 5717 5717 5716 5715 5714 5714 5715 5714 5714 5714 5713 5712 5713 5710 5707 5709 5710 5712
5758 5754 5751 5748 5745 5742 5739 5735 5730 5726 5724 5723 5723 5720 5719 5718 5717 5716 5716 5717 5717 5717 5716 5716 5715 5715 5714 5713 5712 5711 5711 5711 5710 5711 5711 5711 5709 5709 5709 5706 5705 5705 5708
5752 5748 5745 5742 5739 5735 5732 5730 5725 5721 5719 5718 5716 5715 5714 5714 5712 5712 5712 5712 5714 5713 5712 5713 5711 5711 5710 5710 5709 5708 5708 5708 5707 5707 5708 5709 5709 5709 5707 5705 5703 5702 5705
5748 5744 5741 5738 5734 5731 5728 5725 5721 5717 5715 5713 5711 5710 5710 5711 5711 5709 5709 5709 5710 5710 5708 5708 5708 5707 5707 5707 5706 5706 5706 5705 5704 5705 5704 5705 5707 5706 5705 5703 5701 5698 5700
5741 5739 5736 5733 5730 5727 5723 5720 5716 5713 5710 5709 5707 5705 5705 5705 5705 5705 5705 5706 5705 5705 5704 5704 5704 5704 5703 5703 5702 5703 5702 5702 5702 5703 5702 5702 5703 5703 5703 5702 5701 5697 5694
5734 5732 5730 5728 5726 5723 5719 5715 5712 5708 5706 5704 5703 5702 5701 5700 5700 5700 5699 5699 5699 5699 5699 5699 5700 5699 5699 5698 5698 5699 5699 5699 5699 5698 5698 5697 5699 5699 5700 5700 5699 5698 5695
5729 5726 5724 5722 5720 5717 5714 5710 5707 5704 5701 5699 5698 5697 5696 5696 5695 5694 5694 5694 5694 5694 5694 5695 5695 5695 5695 5695 5694 5695 5696 5695 5695 5695 5695 5694 5694 5695 5696 5697 5696 5695 5694
5726 5723 5719 5716 5713 5711 5708 5705 5703 5700 5697 5695 5693 5691 5690 5690 5689 5689 5688 5688 5688 5689 5690 5690 5690 5691 5691 5691 5691 5691 5691 5691 5691 5692 5691 5691 5691 5690 5691 5691 5692 5691 5690
5718 5716 5713 5710 5707 5705 5702 5700 5698 5695 5694 5691 5689 5686 5685 5684 5684 5684 5683 5683 5683 5684 5684 5685 5685 5686 5687 5687 5687 5687 5687 5687 5687 5687 5686 5686 5686 5685 5686 5686 5687 5688 5688
5711 5709 5706 5704 5701 5699 5696 5694 5692 5690 5688 5686 5683 5681 5679 5679 5678 5678 5677 5677 5678 5678 5678 5679 5679 5680 5681 5682 5682 5683 5683 5683 5683 5683 5682 5682 5682 5681 5681 5681 5681 5682 5682
5704 5701 5698 5696 5694 5692 5690 5688 5686 5684 5682 5680 5678 5676 5674 5674 5673 5672 5672 5672 5672 5673 5673 5673 5674 5675 5676 5677 5677 5677 5678 5677 5677 5677 5677 5677 5676 5676 5675 5677 5677 5676 5676
5698 5696 5693 5690 5687 5685 5684 5682 5680 5678 5676 5674 5672 5671 5669 5668 5667 5666 5666 5666 5666 5667 5668 5668 5669 5669 5671 5669 5668 5669 5671 5671 5671 5671 5672 5672 5671 5669 5668 5668 5668 5668 5669
5692 5689 5687 5684 5681 5680 5678 5675 5674 5673 5671 5669 5668 5666 5665 5663 5662 5662 5661 5661 5661 5661 5662 5662 5663 5664 5663 5661 5660 5660 5663 5665 5665 5666 5666 5668 5669 5667 5666 5663 5661 5661 5661
5686 5683 5682 5680 5678 5676 5673 5671 5670 5668 5666 5664 5663 5661 5659 5658 5657 5657 5656 5656 5656 5656 5656 5657 5658 5658 5658 5656 5654 5654 5657 5659 5660 5661 5661 5661 5662 5662 5661 5661 5660 5660 5660
5679 5677 5676 5674 5672 5669 5667 5665 5664 5662 5660 5658 5657 5656 5655 5653 5652 5652 5651 5651 5651 5651 5651 5653 5653 5653 5653 5650 5649 5647 5652 5655 5656 5657 5657 5657 5656 5654 5653 5653 5654 5654 5655
5672 5670 5668 5666 5664 5661 5660 5658 5656 5655 5654 5653 5652 5650 5649 5648 5647 5647 5646 5647 5647 5646 5647 5648 5648 5649 5649 5646 5645 5643 5649 5650 5651 5652 5653 5651 5650 5649 5647 5648 5649 5649 5650
5664 5662 5659 5657 5655 5653 5652 5650 5649 5648 5648 5647 5646 5645 5643 5643 5642 5642 5641 5641 5642 5642 5642 5643 5644 5644 5644 5643 5641 5640 5644 5647 5647 5648 5649 5649 5645 5643 5641 5641 5643 5644 5644
5656 5653 5651 5648 5647 5645 5644 5642 5641 5641 5640 5640 5640 5639 5638 5638 5639 5636 5636 5636 5637 5637 5637 5637 5638 5640 5640 5639 5638 5636 5637 5639 5641 5643 5645 5644 5640 5638 5636 5636 5636 5636 5635
5649 5647 5645 5642 5641 5639 5638 5636 5635 5635 5634 5633 5633 5633 5633 5633 5633 5632 5631 5632 5632 5633 5634 5634 5635 5636 5637 5636 5633 5632 5632 5632 5635 5638 5636 5635 5633 5632 5632 5630 5630 5630 5633
5641 5640 5638 5636 5634 5633 5633 5631 5630 5629 5628 5627 5627 5628 5628 5628 5628 5627 5629 5628 5628 5628 5629 5629 5630 5631 5632 5633 5632 5631 5629 5627 5628 5630 5629 5627 5627 5627 5628 5628 5627 5628 5632
5635 5633 5631 5630 5629 5628 5626 5625 5624 5623 5622 5621 5622 5623 5624 5624 5622 5622 5621 5622 5621 5622 5621 5623 5624 5624 5625 5625 5623 5625 5626 5627 5627 5626 5626 5627 5629 5629 5629 5629 5630 5629 5628
5628 5627 5626 5625 5624 5622 5620 5619 5618 5618 5616 5616 5617 5619 5619 5619 5618 5617 5616 5613 5612 5611 5611 5611 5613 5616 5615 5614 5614 5614 5615 5615 5615 5616 5621 5624 5626 5627 5627 5627 5626 5626 5625